Location: Holcomb Observatory
(44.4922°N, 73.1654°W)
Time: 09:34:33
(UTC-05:00)

Daily predictions for brighter satellites

Satellite Brightness Start Highest point End
(mag) Time Altitude Azimuth Time Altitude Azimuth Time Altitude Azimuth
ALOS 3.3 17:05:34 10° ESE 17:09:17 24° ENE 17:13:03 10° NNE
YAOGAN 1 3.1 17:07:35 10° SE 17:11:32 36° ENE 17:15:30 10° N
CZ-4 R/B 1.7 17:09:09 10° SSE 17:13:14 52° ENE 17:17:22 10° N
Meteor 2-1 Rocket 4.3 17:12:33 10° N 17:18:20 81° E 17:24:12 10° SSE
NOSS 3-3 (A) 4.4 17:13:41 10° S 17:19:25 47° ESE 17:25:41 10° NE
NOSS 3-3 (C) 4.4 17:13:48 10° S 17:19:32 47° ESE 17:25:47 10° NE
IRAS Rocket 4.2 17:14:24 10° SSE 17:19:54 76° ENE 17:25:30 10° NNW
NOSS 7 (D) 4.3 17:16:44 10° SSW 17:20:11 70° SE 17:23:24 10° NE
Meteor 1-24 Rocket 4.0 17:15:29 10° SSW 17:21:09 77° WNW 17:27:04 10° N
Meteor 2-10 4.4 17:19:01 10° N 17:23:42 37° ENE 17:28:22 10° SE
Cosmos 1674 2.7 17:20:35 10° S 17:24:16 58° E 17:27:58 10° NNE
SeaSat 1 4.3 17:23:47 10° S 17:28:18 36° WSW 17:32:52 10° NW
Cosmos 2369 Rocket 2.2 17:26:22 10° NNW 17:32:02 70° ENE 17:37:42 10° SSE
SL-14 R/B 4.4 17:30:11 10° SE 17:33:26 24° E 17:36:40 10° NE
Cosmos 1354 Rocket 4.0 17:28:47 10° NNW 17:34:07 85° ENE 17:39:27 10° SSE
Cosmos 1295 Rocket 4.4 17:33:22 10° N 17:39:27 67° E 17:45:32 10° SSE
USA 161 4.1 17:38:29 10° NW 17:39:39 13° WNW 17:40:46 10° W
Cosmos 1484 Rocket 4.2 17:36:44 10° S 17:40:22 41° W 17:43:59 10° NNW
Cosmos 2221 2.6 17:36:04 10° N 17:40:22 56° E 17:44:40 10° SSE
SPOT 3 Rocket 3.9 17:36:28 10° SE 17:41:16 41° ENE 17:46:05 10° N
CORIOLIS 4.5 17:36:52 10° S 17:42:12 72° WSW 17:47:34 10° NNW
Ariane Rocket 3.6 17:39:32 10° S 17:44:31 61° WSW 17:49:34 10° NNW
Cosmos 1300 3.2 17:41:44 10° N 17:45:19 36° ENE 17:48:51 10° SE
Lacrosse 4 Rocket 3.8 17:43:43 10° W 17:46:25 17° NW 17:49:05 10° N
COSMO-SKYMED 1 2.7 17:43:49 10° NNE 17:48:06 54° E 17:52:20 10° S
Cosmos 1315 Rocket 3.9 17:45:30 10° SE 17:48:38 23° E 17:50:19 17° NE
Cosmos 1626 3.8 17:49:02 10° SE 17:50:39 16° ESE 17:50:39 16° ESE
IRS-1A Rocket 4.3 17:47:05 10° SSE 17:52:37 84° WSW 17:58:16 10° NNW
Cosmos 1656 Rocket 4.3 17:49:11 10° N 17:54:04 32° NE 17:58:58 10° ESE
CZ-4 R/B 4.5 17:50:25 10° SSE 17:54:32 84° W 17:58:41 10° NNW
GEOS 3 Rocket 4.0 17:49:54 10° ESE 17:54:56 45° NE 18:00:04 10° NNW
Meteor 2-14 Rocket 4.4 17:48:48 10° N 17:54:58 84° E 18:01:03 10° S
Cosmos 1943 Rocket 2.1 17:49:26 10° NNW 17:55:04 71° ENE 18:00:37 10° SSE
Cosmos 2366 rocket 4.2 17:49:03 10° N 17:55:05 47° ENE 18:01:01 10° SSE
CZ-2C R/B 3.8 17:50:36 10° NNE 17:55:22 87° WNW 18:00:03 10° SSW
BREEZE-M R/B 4.0 17:55:32 10° SW 17:59:50 78° SSE 18:11:43 17° ENE
Tiangong 1 0.9 17:59:15 10° WSW 18:01:40 52° S 18:02:22 36° ESE
USA 215 4.4 17:59:33 15° NE 18:03:55 30° N 18:09:23 10° WNW
ERS-2 2.3 18:02:25 10° SSE 18:05:58 49° ENE 18:09:33 10° N
Meteor 1-21 Rocket 4.3 18:00:38 10° S 18:06:30 88° W 18:12:29 10° N
Cosmos 2341 Rocket 4.3 18:01:39 10° NNW 18:07:52 71° W 18:14:07 10° S
Meteor 2-2 Rocket 4.4 18:03:33 10° N 18:09:10 49° ENE 18:14:39 10° SSE
FengYun 1-2 T 4.5 18:05:35 10° SE 18:10:56 46° ENE 18:16:16 10° N
NOAA 12 4.0 18:07:23 10° SSE 18:12:37 83° ENE 18:17:53 10° NNW
Cosmos 2098 Rocket 4.1 18:12:14 10° N 18:16:38 35° ENE 18:22:02 10° SE
MOS 1 4.4 18:11:15 10° SSE 18:16:53 80° WSW 18:22:35 10° NNW
Cosmos 1076 Rocket 3.4 18:12:59 10° S 18:17:20 85° E 18:21:45 10° N
Cosmos 1992 Rocket 4.3 18:13:06 10° SSW 18:18:16 66° WNW 18:23:29 10° NNE
FENGYUN 3A 3.7 18:13:42 10° SSE 18:19:02 81° WSW 18:24:27 10° NNW
Cosmos 1328 Rocket 4.3 18:15:54 10° N 18:19:14 31° NE 18:19:14 31° NE
NOSS 2-1 (C) 4.2 18:17:28 10° WSW 18:21:03 45° NW 18:23:42 19° NNE
Cosmos 1400 Rocket 3.1 18:17:28 10° SSW 18:21:30 69° WNW 18:25:36 10° N
NOSS 2-1 (D) 4.2 18:18:08 10° WSW 18:21:42 44° NW 18:24:20 19° NNE
Cosmos 1328 3.8 18:17:49 10° S 18:21:44 56° E 18:23:46 26° NNE
H-2A R/B 2.7 18:19:34 10° SSE 18:23:16 55° ENE 18:27:03 10° N
Okean 3 Rocket 3.8 18:20:20 10° SSW 18:24:52 77° W 18:29:25 10° N
ATLAS 5 CENTAUR R/B 4.4 18:27:32 10° NNW 18:28:36 11° N 18:29:41 10° N
Cosmos 1766 Rocket 3.4 18:26:09 10° S 18:30:27 67° E 18:33:00 24° NNE
Cosmos 864 Rocket 4.4 18:26:55 10° N 18:33:18 85° E 18:39:38 10° S
BREEZE-M R/B 3.7 18:32:41 10° W 18:34:10 31° WNW 18:34:10 31° WNW
Cosmos 1943 3.9 18:31:49 10° SW 18:37:18 52° WNW 18:42:28 12° NNE
Cosmos 968 Rocket 4.0 18:32:30 10° NNW 18:37:35 59° WSW 18:42:35 10° S
SL-24 R/B - RUBIN 2 3.5 18:33:12 10° NNW 18:37:46 59° NE 18:38:20 54° E
ATLAS 2AS CENTAUR R/B 3.9 18:31:45 10° NW 18:39:15 48° WSW 18:46:10 10° S
EO 1 Del DPAF 4.0 18:43:37 16° N 18:46:28 51° WNW 18:50:11 10° SSW
ALOS 3.7 18:42:10 10° SSW 18:46:31 39° W 18:50:54 10° NNW
Envisat 4.2 19:00:33 27° N 19:00:33 27° N 19:02:58 10° N
NOSS 3-4 (A) 3.7 18:54:56 10° NW 19:01:59 84° NE 19:05:59 31° SE
NOSS 3-4 (C) 3.7 18:55:03 10° NW 19:02:05 83° NE 19:05:59 31° SE
Thor Agena Rocket 3.4 19:02:12 67° E 19:02:20 68° ESE 19:07:33 10° S
Cosmos 909 Rocket 4.1 19:02:53 10° NNW 19:09:52 60° NE 19:10:14 59° ENE
Cosmos 1626 4.1 19:23:06 10° SW 19:25:21 27° WSW 19:25:21 27° WSW
Cosmos 1241 Rocket 4.5 19:30:05 10° NNW 19:35:41 73° NNW 19:35:41 73° NNW
USA 215 4.1 19:46:54 36° N 19:46:54 36° N 19:51:49 10° NW
Cosmos 1821 Rocket 4.3 19:41:44 10° NNW 19:46:39 57° NW 19:46:39 57° NW
